Flag for Germany Weather past 2 weeks in Wittmund, Lower Saxony, Germany

Now
57 °F

Passing clouds.


Feels Like: 53 °F
Forecast: 55 / 61 °F
Wind: 17 mph from West

Location: Wittmundhaven

Current Time: Jul 30, 2015 at 1:09:28 AM

Latest Report: Jul 30, 2015 at 12:20 AM


Visibility: N/A

Pressure: 29.68 "Hg

Humidity: 77%

Dew point: 50 °F

Location of WittmundLocation

Historic Weather in Wittmund — Graph

°F

Wittmund temperature yesterday

Maximum temperature yesterday: 61 °F (at 11:20 AM)
Minimum temperature yesterday: 55 °F (at 5:20 AM)
Average temperature yesterday: 57 °F

Past Weeks' High & Low Weather Summary

 TemperatureHumidityPressure
High81 °F (Jul 17, 2:20 PM)100% (Jul 15, 6:20 AM)30.12 "Hg (Jul 15, 6:20 AM)
Low48 °F (Jul 24, 4:20 AM)50% (Jul 20, 3:20 PM)29.39 "Hg (Jul 25, 2:20 PM)
Average61 °F80%29.82 "Hg
* Reported Jul 14 11:20 PM — Jul 29 11:20 PM, Wittmund, Weather by CustomWeather, © 2015

Note: Actual official high and low records may vary slightly from our data, if they occured in-between our weather recording intervals... More about our weather records

Advertising

Wittmund weather history for previous 24 hours

 ConditionsComfort  
Time TempWeatherWind HumidityBarometerVisibility
11:20 PM
Wed, Jul 29
57 °FPassing clouds.21 mph82%29.68 "HgN/A
10:20 PM57 °FLight rain. Broken clouds.17 mph82%29.65 "Hg5 mi
9:20 PM55 °FBroken clouds.16 mph94%29.62 "Hg6 mi
8:20 PM55 °FDrizzle. Partly sunny.18 mph88%29.62 "Hg4 mi
7:20 PM55 °FRain. Broken clouds.18 mph88%29.59 "Hg4 mi
6:20 PM57 °FRain showers. Broken clouds.18 mph82%29.59 "Hg3 mi
5:20 PM57 °FBroken clouds.13 mph82%29.59 "HgN/A
4:20 PM57 °FBroken clouds.18 mph77%29.59 "HgN/A
3:20 PM57 °FBroken clouds.16 mph77%29.59 "HgN/A
2:20 PM59 °FBroken clouds.16 mph72%29.59 "HgN/A
1:20 PM55 °FScattered showers. Broken clouds.17 mph77%29.59 "HgN/A
12:20 PM57 °FScattered clouds.13 mph77%29.59 "HgN/A
11:20 AM61 °FSprinkles. Scattered clouds.15 mph77%29.59 "Hg4 mi
10:20 AM59 °FScattered clouds.17 mph68%29.59 "HgN/A
9:20 AM57 °FScattered clouds.17 mph77%29.59 "HgN/A
8:20 AM55 °FScattered clouds.15 mph82%29.59 "HgN/A
7:20 AM55 °FScattered clouds.12 mph94%29.59 "HgN/A
6:20 AM55 °FPassing clouds.10 mph94%29.59 "HgN/A
5:20 AM55 °FPassing clouds.13 mph94%29.59 "HgN/A
4:20 AM57 °FSprinkles. Passing clouds.12 mph88%29.59 "HgN/A
3:20 AM57 °FPassing clouds.10 mph94%29.59 "HgN/A
2:20 AM57 °FPartly cloudy.12 mph88%29.59 "HgN/A
1:20 AM57 °FPassing clouds.12 mph88%29.59 "HgN/A
Weather by CustomWeather, © 2015

See weather overviewHow to use our weather pages